Other Surface Observations
Issued by NWS

Current Version | Previous Version | Text Only | Print | Product List | Glossary On
Versions: 1 2 3 4 5 6 7 8 9 10 11 12 13 14 15 16 17 18 19 20 21 22 23 24 25 26 27 28 29 30 31 32 33 34 35 36 37 38 39 40 41 42 43 44 45 46 47 48 49 50
099
SXUS52 KTAE 201918
OSOTAE
OSOTAE
North Florida/South Alabama/Southwest Georgia Weather Roundup
National Weather Service Tallahassee Florida
200 PM EST SAT JAN 20 2018

Note: "fair" indicates few or no clouds below 12,000 feet with no
significant weather and/or obstructions to visibility.

!FLZ017-115-028-034-025-202000
...North Florida...

CITY           SKY/WX    TMP DP  RH WIND       PRES   REMARKS
TALLAHASSEE    FAIR      61  26  26 N8        30.27F
APALACHICOLA   FAIR      59  28  30 SE7       30.26F
PERRY          FAIR      61  20  20 NE3       30.27F
CROSS CITY     FAIR      59  26  28 NE5       30.31F
JACKSONVILLE   PTSUNNY   61  22  22 VRB3      30.26F
$$

!FLZ112-006-005-002-011-202000
...Florida Panhandle...

CITY           SKY/WX    TMP DP  RH WIND       PRES   REMARKS
MARIANNA       FAIR      62  34  35 N9        30.26F
BONIFAY        NOT AVBL
PANAMA CITY NW FAIR      66  37  34 VRB3      30.26F
TYNDALL AFB    FAIR      63  36  37 N5        30.27F
TYND DRONE APT FAIR      65  35  33 N6        30.26F
DE FUNIAK SPR  FAIR      63  38  39 NE8       30.28F
EGLIN AFB      MOSUNNY   63  35  35 SE10      30.27F
DESTIN         FAIR      63  36  36 S6        30.27F
HURLBURT       SUNNY     61  38  42 S10       30.26F
CRESTVIEW      FAIR      65  37  35 SE3       30.27F
PENSACOLA      FAIR      62  36  37 S12       30.27F
$$

!ALZ063-066-202000
...South Alabama...

CITY           SKY/WX    TMP DP  RH WIND       PRES   REMARKS
DOTHAN         FAIR      63  41  44 VRB5      30.29F
OZARK CAIRNS   FAIR      64  41  42 N9        30.24F
FT RUCKER HELI FAIR      62  41  45 NE3       30.26F
RUCKER HELI 3    N/A     62  39  43 CALM      30.25F
RUCKER HELI 2  FAIR      63  41  43 N3        30.25F
FLORALA APT    FAIR      63  37  38 VRB5      30.28F
ANDALUSIA      FAIR      66  38  35 E6        30.25F
TROY           FAIR      62  38  40 VRB3      30.27F
EUFALA         CLOUDY    65  41  41 CALM      30.25F
MOBILE         PTSUNNY   66  41  40 E12       30.26F
$$

!GAZ120>161-202000
...Southwest and South Central Georgia...

CITY           SKY/WX    TMP DP  RH WIND       PRES   REMARKS
THOMASVILLE    FAIR      61  23  23 CALM      30.27F
BAINBRIDGE     FAIR      63  37  39 NE7       30.27F
MOODY AFB      FAIR      59  17  19 W6        30.26F
VALDOSTA       FAIR      59  17  19 CALM      30.27F
MOULTRIE       FAIR      59  23  25 N3        30.27F
BLAKELY        FAIR      64  36  34 NE5       30.27F
ALBANY         FAIR      63  38  39 N8        30.28F
TIFTON         FAIR      59  26  28 CALM      30.26F
FITZGERALD     FAIR      62  35  37 CALM      30.27F
CORDELE        FAIR      65  37  35 NW8       30.27F
AMERICUS       FAIR      61  32  33 N5        30.26F
HOMERVILLE     FAIR      61  18  18 W5        30.27F
$$

!GMZ750-755-770-775-202000
...Coastal and Buoy Obs...

STATION/POSITION TIME  TEMP    WIND        PRES    VSBY  WAVE
                       AIR SEA DIR/SP/G                  HT/PER
                 (UTC) (F)     (DEG/KT/KT) (MB)    (MI)  (FT/S)
KEATON BEACH     1900   58     100/  3/  4 1024.8F
CEDAR KEY        1900   57      CALM  /  1 1024.5F
C TOWER          1900   55     110/ 10/ 11 1025.5F
APALACHICOLA BUO NOT AVBL
PANAMA CITY BUOY 1850   61 69   70/ 12/ 16 1024.5F         1/ 3
MOBILE BUOY      1900   65 69  100/ 12/ 14 1024.2
ORANGE BCH AL BU NOT AVBL
$$




USA.gov is the U.S. government's official web portal to all federal, state and local government web resources and services.